Location: Crescent
(42.8242°N, 73.7329°W)
Time: 18:03:34
(UTC+00:00)

Vanguard 2 - Visible Passes

Search period start: 18 February 2026 00:00
Search period end: 28 February 2026 00:00
Orbit: 553 x 2897 km, 32.9° (Epoch: 17 February)

Date Brightness Start Highest point End Pass type
(mag) Time Alt. Az. Time Alt. Az. Time Alt. Az.
18 Feb 9.4 10:32:49 10° SSW 10:36:36 18° S 10:39:41 10° SE visible
19 Feb 10.2 08:41:26 12° SSE 08:41:26 12° SSE 08:43:09 10° SE visible
19 Feb 9.2 10:44:10 10° SW 10:48:28 22° S 10:51:51 10° ESE visible
20 Feb 9.9 08:52:49 16° SSE 08:52:49 16° SSE 08:56:14 10° SE visible
20 Feb 9.0 10:55:42 10° SW 11:00:19 24° S 11:03:52 10° ESE visible
21 Feb 9.7 09:04:07 21° S 09:04:35 21° SSE 09:08:43 10° ESE visible
21 Feb 8.9 11:07:23 10° WSW 11:12:09 26° S 11:15:49 10° SE visible
22 Feb 9.4 09:15:23 24° S 09:16:28 25° S 09:20:57 10° ESE visible
23 Feb 9.2 09:26:35 26° SSW 09:28:21 29° S 09:33:02 10° ESE visible
24 Feb 10.5 07:36:49 13° ESE 07:36:49 13° ESE 07:37:36 10° ESE visible
24 Feb 9.1 09:37:44 26° SSW 09:40:12 32° S 09:45:00 10° ESE visible
25 Feb 10.3 07:47:56 18° SE 07:47:56 18° SE 07:49:53 10° ESE visible
25 Feb 9.0 09:48:51 24° SW 09:52:04 34° S 09:56:55 10° ESE visible
26 Feb 9.9 07:59:01 24° SE 07:59:01 24° SE 08:02:00 10° ESE visible
26 Feb 8.9 09:59:57 21° SW 10:03:53 35° S 10:08:45 10° ESE visible
27 Feb 9.7 08:10:06 31° SE 08:10:06 31° SE 08:14:02 10° ESE visible
27 Feb 9.0 10:11:01 18° WSW 10:15:40 34° SSW 10:20:32 10° SE visible
